OBJECT G, 60209

Orbit data source: Space-Track

You're viewing an Uncataloged Satellite

Recently launched and/or uncataloged satellites may have evolving metadata. Metadata may include but not limited to: Owner, Maufacturer, Bus, Motor, and Mission.

OBJECT G, 60209 is an American satellite in SSO that was launched on Thu, 04 Jul 2024 UTC via an FIREFLY ALPHA launch vehicle from the Air Force Western Test Range (AFWTR). Unknown objects in Earth's orbit typically refer to objects detected orbiting the Earth but have not yet been identified or cataloged. These objects could be anything from previously untracked satellites, spent rocket stages, debris from satellite collisions, or even natural meteoroids temporarily captured by Earth's gravity.

Loading next visibility...
Identifier
60209, 2024-125G
Orbit
SSO
Country
Flag of USUS
Related business
Flag of USUniversity of Maine (US)
Manufacturer
UME
Mission
Operational Amateur Science
Bus & Motor
CUBESAT 3U, Unknown motor
Mass
3 kg wet, 3 kg dry
Launch date (UTC)
2024-07-04 (2 years ago)
Launch vehicle
FIREFLY ALPHA
Launch site
Air Force Western Test Range (AFWTR)
Object type
Unknown
Shape & HBR
Box, 0.1 m
Radar Cross Section
0.035 m², Medium (>0.1 m² and < 1m²)

Expand to show TLE details & history
Last TLE update: 22 hours ago

TLE from 22 hours ago
0 OBJECT G
1 60209U 24125G   26171.05066676  .00049535  00000-0  53419-3 0  9995
2 60209  97.2284  28.5983 0009832 192.9282 167.1727 15.63472773110010
Epoch: 2026-06-20T01:12Z
TLE epoch observation values (Epoch: 2026-06-20T01:12:57.608Z)
Latitude
0.00005°
Longitude
102.08741°
Altitude
387.267 km
Speed
7.674 km/s
True Right ascension
01h 54m 23s
True Declination
0° 00' 00"
Sunlit
Object was in daylight at epoch
Visualization orbit readout
Latitude
Unknown
Longitude
Unknown
Altitude
Unknown
Speed
Unknown
Apparent Right ascension
Unknown
Apparent Declination
Unknown
Sunlit
N/A
Visualization observer readout
Local Sidereal Time
10:18:25
Azimuth
Unknown
Elevation
Unknown
Doppler factor
Unknown
Orbital elements
Apogee altitude
381.174 km
Perigee altitude
367.896 km
Semi-major axis
6,752.672 km
Eccentricity
0.00098
Inclination
97.2284°
RAAN
28.5983°
Arg. of periapsis
192.9282°
True anomaly
167.19768°
Mean anomaly
167.1727°
Eccentric anomaly
167.18519°
Mean motion
3.91138 °/min
Orbital period
92.04 mins
BSTAR
0.00053419
Loading maneuver chart data...
Computing Atmospheric mass density...
Loading historical data...
Loading historical data...
Loading historical data...
Loading historical data...
Loading historical data...
Loading historical data...
Loading historical data...

Documentation

Showing up to 5 results
|